Temperature
21 20 20 20 25 28 28 28 28 28 28 27 26 26 27 26 26 24 21 20 20 20 19 19 19 19 19 19 19 19 19 19 19 19 19 19 19 19 19 19 18 19 19 18 18 18 19 19 19
20 20 21 24 28 28 28 28 28 28 27 26 26 26 26 25 23 22 21 20 20 20 19 19 19 19 19 19 19 19 19 19 19 19 19 19 19 19 19 19 18 18 18 18 18 18 19 19 19
20 20 23 28 29 28 28 28 28 27 26 26 26 26 25 24 22 21 20 20 20 20 19 19 19 19 19 19 19 19 19 19 19 19 19 19 19 19 19 19 18 18 18 18 18 18 19 19 19
20 22 25 29 28 29 29 28 28 28 27 26 26 26 23 22 22 21 20 20 20 20 19 19 19 19 19 19 19 19 19 19 19 19 19 19 19 19 18 18 18 18 18 18 18 19 19 19 19
21 25 29 29 29 29 29 28 28 28 27 27 26 26 23 21 21 21 20 20 20 20 19 19 20 19 19 19 19 19 19 19 19 19 19 19 19 19 18 18 18 18 18 18 18 18 18 19 18
25 28 29 29 29 29 29 28 28 28 27 26 26 26 23 21 21 21 21 21 20 20 20 19 20 19 19 19 19 19 19 19 19 19 19 19 19 19 18 18 18 18 18 18 18 18 18 18 18
27 29 29 29 29 29 29 28 28 28 28 26 26 26 23 21 21 21 21 20 20 20 20 19 19 19 19 19 19 19 19 19 19 19 19 19 19 19 19 18 18 18 18 18 18 18 18 18 18
26 29 30 30 29 29 29 28 27 28 27 26 26 26 24 22 21 21 21 20 20 20 20 19 19 19 19 19 19 19 19 19 19 19 19 19 19 19 18 18 18 18 18 18 18 18 18 18 18
26 30 30 30 29 29 29 28 27 27 26 26 25 25 24 21 21 21 21 21 20 20 19 19 19 19 19 19 19 19 19 19 19 19 19 19 18 18 18 18 18 18 18 18 18 18 18 18 18
28 30 30 30 30 30 29 28 28 28 27 26 25 24 22 22 21 21 22 21 21 20 20 19 19 19 19 19 19 19 19 19 19 18 18 18 18 18 18 18 18 18 18 18 18 18 18 18 18
29 30 30 30 29 29 29 28 28 28 28 27 26 24 22 22 22 22 22 22 21 20 20 20 19 19 19 19 19 19 19 19 19 18 18 18 18 18 18 18 18 18 18 18 18 18 18 18 18
30 30 30 30 29 29 29 29 28 28 28 27 26 24 23 22 23 22 22 22 21 20 20 20 19 19 19 19 19 19 19 19 19 18 18 18 18 18 18 18 18 18 18 18 18 18 18 18 18
30 30 29 29 29 29 29 29 28 27 27 26 25 24 24 23 23 22 22 21 21 20 20 20 20 19 19 19 19 19 19 19 19 19 18 18 18 18 18 18 18 18 18 18 18 18 18 18 18
30 30 30 29 29 29 29 29 28 27 26 26 25 24 24 24 23 22 22 21 21 20 20 20 19 19 19 19 19 19 19 19 19 19 18 18 18 18 18 18 18 18 18 18 18 18 18 18 18
29 30 30 30 30 30 30 29 29 27 26 26 25 25 24 24 23 22 22 21 21 20 20 20 20 20 20 19 19 19 19 19 19 19 18 18 18 18 18 18 18 18 18 18 18 18 18 18 18
31 31 31 31 31 30 30 29 29 27 27 27 26 25 24 24 23 23 22 21 21 21 20 20 20 20 20 20 19 19 19 19 19 19 19 18 18 18 18 18 18 18 18 18 18 18 18 18 18
31 31 31 31 31 31 30 30 29 28 27 27 26 25 25 24 23 23 22 21 21 20 20 20 20 20 20 20 20 19 19 19 19 19 19 18 18 18 18 18 18 18 18 18 18 18 18 18 18
31 31 31 31 31 31 31 31 30 28 28 28 27 26 25 24 24 23 22 21 21 20 21 21 20 20 20 20 20 19 19 19 19 19 19 19 18 18 18 18 18 18 18 18 18 18 18 18 18
31 31 31 31 31 31 31 31 30 29 29 28 27 26 25 25 24 23 22 21 21 21 21 21 20 20 20 20 20 20 19 19 19 19 19 19 19 18 18 18 18 18 18 18 18 18 18 18 18
31 31 31 31 31 31 31 31 31 30 29 28 28 27 26 25 24 23 22 22 21 21 21 21 21 20 20 20 20 20 19 19 19 19 19 19 19 18 18 18 18 18 18 18 17 17 18 18 18
31 31 31 31 31 31 31 31 30 30 29 28 28 27 27 26 25 24 23 22 21 21 21 21 21 21 21 20 20 20 19 19 19 19 19 19 19 18 18 18 18 18 18 18 17 17 17 18 18
31 31 31 31 31 31 31 30 31 30 30 29 28 27 27 26 25 24 23 22 22 21 21 21 21 21 21 21 20 20 20 19 19 19 19 19 19 18 18 18 18 18 18 18 17 17 17 17 18
31 31 31 31 31 31 31 31 31 31 30 30 29 28 27 26 26 25 24 23 22 22 21 21 21 21 21 21 20 20 20 19 19 19 19 19 19 18 18 18 18 18 18 18 18 17 17 17 17
31 30 30 31 31 30 31 30 31 31 30 30 29 28 27 26 25 24 24 23 22 22 21 21 21 21 21 21 20 20 20 20 19 19 19 19 18 18 18 18 18 18 18 18 17 17 17 17 17
30 30 30 29 30 30 30 30 30 31 30 30 29 28 27 26 25 24 23 23 22 22 21 21 21 21 21 21 21 20 20 20 20 19 19 19 18 18 18 18 18 18 18 18 17 17 17 17 17
30 31 30 29 30 31 30 30 31 30 29 29 28 28 26 26 25 24 23 23 22 22 21 21 21 21 21 20 20 20 20 19 19 19 19 19 18 18 18 18 18 18 18 17 17 17 17 17 17
30 31 32 31 31 30 31 31 31 30 29 29 28 27 27 26 25 24 23 23 22 21 21 21 21 21 20 20 20 20 20 19 19 19 19 18 18 18 18 18 18 18 18 17 17 17 17 17 16
31 31 31 30 29 29 30 30 31 29 29 29 29 28 27 25 24 24 23 22 22 22 21 21 21 21 20 20 20 19 19 19 19 19 18 18 18 18 18 17 18 17 17 17 17 17 16 16 16
30 30 30 30 30 29 29 30 31 30 30 29 29 27 26 25 24 23 22 22 22 21 21 21 20 20 20 20 20 19 19 19 19 19 18 18 18 18 18 17 17 17 17 17 17 16 16 16 16
31 31 30 29 29 30 30 30 30 30 30 29 28 26 25 24 24 23 22 21 21 21 21 20 20 20 20 20 19 19 19 19 19 18 18 18 18 18 17 17 17 16 16 16 16 16 16 16 15
Wind_Speed
10 7 4 4 3 3 10 9 8 7 6 6 6 5 7 8 7 6 5 6 7 7 8 9 7 7 7 8 8 9 9 9 10 10 11 11 11 12 12 12 12 12 12 11 12 12 11 11 11
6 4 4 4 1 8 10 9 9 8 6 5 5 6 7 8 8 7 7 7 7 8 8 8 9 7 8 8 8 8 9 9 10 10 11 11 11 11 11 11 11 11 11 11 11 11 11 10 10
4 5 4 0 6 9 9 9 9 8 6 4 5 6 6 6 6 6 8 8 8 8 8 10 8 8 8 8 8 8 9 9 10 10 10 10 10 10 11 11 10 10 9 10 10 11 10 10 10
3 4 3 3 10 10 8 7 7 6 6 5 6 7 7 6 4 7 9 8 8 8 8 11 8 8 8 8 8 8 8 8 9 9 9 9 9 9 10 10 9 9 8 9 9 10 10 9 9
4 3 2 7 10 9 8 6 4 5 5 6 6 8 8 6 8 10 9 8 8 8 8 10 8 7 7 7 7 7 8 8 8 8 8 8 8 9 9 9 8 8 8 8 8 9 8 8 8
3 2 3 8 9 8 7 5 4 6 7 6 7 9 7 6 8 9 9 8 8 8 8 10 9 7 7 7 7 7 7 7 7 8 8 8 8 8 9 9 9 8 7 7 7 7 7 7 7
3 2 6 7 8 8 7 5 5 6 7 6 5 7 7 8 8 8 9 8 7 8 7 8 8 8 7 6 6 6 7 7 7 7 7 7 8 8 8 8 9 8 7 7 6 6 6 6 6
3 1 4 6 6 8 6 5 5 5 7 6 3 5 7 10 9 9 9 9 8 7 7 6 6 6 6 7 7 6 6 6 6 6 6 6 7 7 7 8 8 7 6 6 5 5 6 6 6
3 0 5 6 5 6 5 5 5 5 7 5 4 6 11 13 11 10 9 8 8 6 6 5 5 5 5 5 7 6 6 5 5 5 6 4 4 6 7 7 8 6 6 6 5 5 5 6 7
2 3 7 5 4 4 4 4 5 4 5 6 7 10 13 13 11 10 9 9 8 7 6 5 5 4 4 4 5 4 4 5 3 3 4 3 3 3 5 8 7 6 6 7 6 5 6 7 6
1 3 4 3 3 3 5 4 3 3 4 4 8 12 13 12 10 9 8 7 7 7 6 5 4 4 3 3 3 3 2 3 3 3 2 2 2 3 3 4 6 6 6 5 7 7 5 4 2
0 2 2 2 2 2 3 4 3 3 4 5 8 13 13 12 10 9 8 7 7 6 6 5 4 4 3 2 2 2 2 2 2 4 1 2 2 1 2 1 2 3 3 3 3 3 3 3 3
0 1 1 1 2 2 3 3 4 4 5 7 10 13 12 11 10 8 7 6 6 6 6 5 4 4 3 2 1 2 2 2 3 2 2 1 1 1 2 1 1 1 2 3 3 3 3 3 4
2 2 0 1 3 4 4 4 4 5 6 8 11 12 12 10 9 8 7 7 6 6 6 5 5 5 4 3 2 1 1 2 2 2 2 1 1 1 1 2 1 1 1 1 2 2 3 3 3
3 2 3 3 4 4 4 4 4 7 8 9 10 10 11 10 9 8 8 7 7 6 6 6 6 5 4 4 3 2 1 2 1 2 2 1 1 1 1 1 1 1 2 3 2 2 2 3 3
5 5 3 3 4 4 6 3 6 8 9 8 9 10 10 10 9 8 8 7 6 6 6 6 5 6 5 4 3 2 1 2 1 1 2 1 0 0 1 1 1 1 2 2 2 2 1 1 1
6 4 2 3 4 4 6 2 7 9 9 8 8 9 10 10 10 9 8 7 7 7 7 7 6 5 5 5 4 2 2 1 1 1 1 1 1 1 1 0 0 1 1 1 1 1 0 1 0
3 4 3 2 3 6 7 4 6 9 9 9 9 9 9 10 10 10 9 8 8 7 7 7 7 6 5 5 4 3 2 2 1 1 0 1 1 1 1 1 1 1 1 1 0 1 0 1 1
5 6 4 2 2 6 7 6 7 9 10 10 9 9 10 9 9 10 10 9 9 8 8 8 7 7 6 5 4 4 3 2 2 1 1 1 1 1 1 1 1 1 1 1 1 1 2 1 1
8 7 5 3 2 5 6 6 6 9 10 9 10 10 10 10 10 10 11 10 10 10 9 8 8 7 7 5 4 3 2 2 2 1 1 2 1 2 2 2 2 1 0 1 1 1 1 1 1
9 8 5 4 3 6 6 7 6 7 8 9 9 9 9 9 10 11 11 11 11 11 10 9 8 8 7 6 5 4 3 3 3 2 2 2 2 2 2 1 2 1 2 1 1 2 2 1 1
8 5 6 6 7 4 5 5 5 7 8 10 10 9 9 9 10 11 12 12 12 11 10 10 9 8 7 7 6 6 4 3 3 2 2 3 3 3 3 2 2 2 1 1 2 1 2 3 2
6 3 6 7 8 7 7 7 4 7 8 9 10 10 9 9 10 11 11 12 11 11 10 9 9 8 7 7 7 6 5 4 3 3 3 3 3 3 3 3 2 2 2 1 1 1 3 2 3
5 6 6 8 8 9 6 7 4 4 6 6 8 9 8 8 8 9 10 9 10 10 10 10 9 8 8 8 7 7 6 5 4 3 3 3 3 3 3 3 2 3 2 2 2 2 3 2 2
10 10 7 8 8 6 4 7 4 1 2 4 6 7 8 8 8 9 10 10 9 10 10 9 10 9 8 8 8 7 7 6 6 5 4 3 3 3 3 3 3 2 2 3 3 3 3 3 3
12 13 9 7 7 5 5 6 2 1 2 3 5 6 7 8 8 9 9 9 9 9 9 9 9 8 8 8 8 7 7 6 5 5 4 3 3 2 2 4 4 4 4 4 3 3 3 3 3
11 12 11 10 10 9 6 5 4 3 4 5 6 6 7 7 7 7 7 8 8 8 8 8 8 8 8 8 7 7 7 6 4 4 5 4 3 3 3 4 4 4 4 3 3 2 2 2 2
10 10 8 10 8 9 8 8 5 5 5 6 7 7 7 7 7 7 7 7 7 7 7 7 7 7 7 7 7 6 6 6 5 5 4 4 3 3 3 4 3 3 3 3 3 2 1 2 2
10 11 10 10 10 10 9 4 1 3 4 5 6 6 6 7 7 7 7 6 7 7 7 6 6 6 6 6 6 5 5 6 6 5 5 5 4 4 4 4 4 3 3 3 3 3 3 3 3
11 12 12 11 10 10 11 5 3 1 3 4 4 5 5 5 6 6 6 6 6 6 6 6 5 5 5 5 5 6 5 5 6 6 6 5 5 5 5 5 5 4 4 4 4 4 4 4 3
Wind_Direction
187 192 218 238 223 91 67 64 67 70 70 64 62 54 57 46 36 76 90 105 112 116 114 116 105 99 97 102 109 110 111 112 118 128 132 133 132 133 135 133 131 131 136 139 141 139 138 138 138
179 192 232 243 42 79 70 61 66 64 78 85 73 68 70 65 60 93 109 112 122 114 115 108 107 103 99 101 105 110 112 111 115 123 129 131 130 133 133 132 131 131 133 138 140 138 138 140 142
189 230 265 320 57 61 67 63 74 80 82 84 82 64 57 69 84 99 111 128 123 113 110 103 107 104 102 102 102 105 108 108 111 119 126 129 130 131 132 131 132 132 135 138 139 138 138 139 143
220 233 238 71 71 61 64 74 87 92 79 72 90 85 73 64 82 107 121 130 119 114 112 107 105 104 103 103 103 102 107 111 112 115 119 126 128 127 129 129 130 133 136 138 141 139 139 139 141
245 262 111 82 75 70 67 69 80 77 76 83 88 91 84 71 99 116 128 126 119 116 114 111 106 102 101 100 100 101 105 110 112 114 116 120 127 131 133 136 136 136 139 141 141 142 142 142 145
254 254 74 79 81 78 71 68 78 78 86 90 97 96 87 105 117 124 126 123 118 117 116 117 118 109 102 100 100 99 103 105 109 112 115 120 123 128 134 139 140 141 145 149 150 150 149 148 150
308 15 65 75 83 83 67 59 61 83 91 88 97 96 109 121 123 129 127 122 118 117 117 119 127 129 125 110 101 101 103 104 107 113 119 123 126 130 135 138 139 142 146 155 161 162 164 163 162
299 308 83 78 78 80 76 74 68 77 86 96 97 102 125 135 136 133 130 126 121 119 118 120 119 118 125 125 117 106 103 104 107 111 117 128 137 139 144 148 142 149 157 160 166 174 176 173 176
266 356 71 65 66 81 94 94 90 88 106 99 76 90 121 136 141 139 135 132 132 130 127 125 123 124 126 123 120 128 125 120 131 127 129 152 147 142 150 130 134 149 159 165 171 185 186 189 185
273 46 59 51 60 92 104 97 110 126 122 111 110 111 126 141 147 146 146 143 143 143 141 139 133 128 127 117 117 125 127 117 113 98 123 136 122 126 124 121 138 150 158 166 177 189 202 220 191
338 36 55 69 73 104 122 117 124 122 107 116 136 140 145 150 154 153 149 145 144 145 145 144 139 131 125 116 118 115 113 111 116 100 107 116 133 133 132 138 151 162 176 179 178 199 207 204 200
5 25 18 64 96 136 131 122 109 88 79 104 139 147 152 158 161 159 154 148 145 148 150 147 145 141 131 116 116 121 110 104 105 114 130 134 135 130 121 141 146 161 160 158 179 185 179 197 210
225 1 26 136 168 155 154 132 106 101 103 120 140 150 158 161 161 160 157 154 151 156 155 151 151 145 140 138 156 121 111 102 110 100 116 130 142 135 138 134 153 181 148 164 169 169 172 195 201
338 305 244 160 161 167 163 146 144 131 137 139 152 159 164 165 165 163 168 168 165 165 161 155 161 156 157 159 153 121 117 116 100 113 114 140 141 123 141 156 169 185 174 150 167 164 174 189 184
250 224 181 172 179 171 184 174 165 148 153 155 162 167 168 171 172 175 176 177 172 170 168 166 168 164 166 169 164 151 160 142 128 126 120 147 175 139 186 182 186 173 163 164 175 166 181 181 177
221 223 192 162 188 186 226 167 154 161 167 168 170 174 177 180 182 180 180 183 178 175 174 182 179 171 171 174 175 170 164 138 128 133 131 151 180 185 221 222 189 173 191 172 160 196 179 140 195
209 225 197 159 192 207 229 191 156 174 181 182 183 183 185 186 190 187 187 186 185 183 182 184 190 184 179 177 175 179 170 168 166 163 158 155 192 201 221 171 82 218 203 200 214 133 171 176 250
230 245 232 219 191 221 232 217 174 187 199 194 190 191 192 194 194 189 189 187 185 184 186 188 190 189 187 184 184 186 187 193 195 185 168 197 213 215 244 186 182 245 207 202 125 123 168 244 242
264 260 254 226 216 231 238 236 206 198 204 203 198 196 197 199 191 188 190 190 189 189 189 191 192 186 190 193 197 191 189 192 188 197 180 206 234 207 237 263 176 264 258 266 224 211 178 205 239
249 253 243 213 200 248 250 245 218 203 208 208 205 202 201 197 191 190 193 195 196 193 194 193 193 191 194 190 196 199 200 200 199 187 162 216 214 228 209 242 244 236 263 218 233 233 262 222 207
239 248 254 253 214 223 256 233 200 195 205 206 210 210 205 202 198 193 195 198 200 199 197 197 195 192 194 192 193 194 192 206 192 186 178 199 209 213 244 236 265 248 244 201 234 228 235 242 218
235 235 250 243 244 233 243 260 184 186 198 204 206 204 204 202 201 198 196 198 201 200 197 194 193 193 190 193 201 204 206 210 210 204 179 177 196 207 209 215 225 248 262 211 240 193 232 242 248
246 235 238 241 249 257 234 260 206 187 207 209 206 203 204 203 202 198 196 197 198 194 191 188 189 191 190 195 199 205 213 214 206 195 181 196 185 201 211 206 206 219 242 251 277 245 251 246 261
211 206 214 230 241 245 241 256 250 202 217 202 196 195 199 194 191 190 190 189 191 190 189 187 186 190 190 196 201 207 213 216 211 202 196 202 198 199 195 200 206 219 237 231 237 236 228 257 277
212 224 226 227 229 239 204 246 263 179 205 209 194 189 189 184 181 181 183 184 187 189 190 188 187 189 190 195 201 206 213 211 209 214 210 222 221 205 193 203 203 216 218 226 232 227 246 239 243
218 235 243 252 254 246 200 240 240 139 184 196 189 181 179 180 177 179 180 182 182 183 186 185 187 189 189 194 199 205 209 213 211 212 226 215 231 232 198 203 206 212 219 226 225 237 233 232 237
222 232 251 263 266 265 238 235 215 180 191 189 179 174 175 174 169 171 172 174 174 178 183 186 186 187 191 194 197 202 207 216 219 218 222 222 218 219 203 207 207 209 212 223 229 239 260 249 248
240 239 236 244 253 261 250 239 238 200 205 187 182 180 171 165 163 160 161 165 167 172 177 182 184 188 194 198 203 200 205 212 220 229 229 233 232 230 214 205 203 204 203 194 203 206 208 224 243
209 220 234 247 255 263 265 254 185 214 203 195 187 179 168 163 160 156 155 156 159 166 170 172 173 180 188 196 201 204 205 210 213 216 218 219 222 221 220 218 215 202 198 196 197 213 212 217 225
231 232 230 238 243 252 269 271 98 182 197 194 185 169 160 158 154 152 150 151 160 165 167 167 173 177 186 195 195 200 200 206 212 209 208 209 209 214 216 216 213 210 205 208 208 218 223 224 227
Height
1510 1510 1511 1512 1507 1501 1502 1500 1497 1499 1502 1505 1507 1506 1506 1508 1511 1520 1523 1522 1523 1523 1522 1521 1521 1521 1521 1521 1521 1522 1521 1521 1521 1522 1523 1525 1526 1528 1530 1531 1533 1535 1536 1538 1539 1541 1543 1544 1545
1511 1511 1512 1510 1500 1505 1506 1500 1501 1503 1506 1508 1509 1509 1509 1514 1518 1521 1522 1523 1524 1524 1524 1523 1522 1523 1523 1523 1523 1523 1523 1524 1524 1524 1525 1527 1528 1530 1532 1533 1535 1537 1538 1539 1541 1542 1544 1545 1547
1511 1512 1512 1503 1500 1505 1507 1502 1504 1506 1509 1509 1510 1512 1514 1518 1521 1523 1524 1525 1526 1526 1526 1524 1524 1524 1525 1525 1525 1525 1525 1526 1526 1527 1528 1529 1530 1532 1533 1535 1537 1538 1540 1541 1542 1544 1545 1547 1548
1513 1514 1510 1503 1505 1503 1503 1504 1506 1507 1509 1510 1511 1514 1519 1522 1523 1525 1525 1526 1528 1528 1528 1527 1526 1526 1527 1527 1527 1527 1528 1528 1528 1529 1530 1531 1532 1533 1535 1536 1538 1540 1541 1543 1544 1545 1547 1548 1549
1514 1511 1503 1504 1504 1504 1504 1506 1507 1507 1509 1511 1512 1515 1521 1524 1525 1526 1527 1528 1529 1530 1530 1529 1528 1528 1529 1529 1529 1529 1530 1530 1531 1531 1532 1533 1534 1535 1537 1538 1539 1541 1543 1544 1545 1547 1548 1549 1550
1514 1507 1504 1508 1506 1505 1506 1508 1508 1508 1511 1513 1514 1517 1523 1526 1526 1527 1528 1530 1531 1531 1532 1531 1530 1530 1531 1531 1531 1532 1532 1532 1533 1533 1534 1535 1536 1537 1538 1540 1541 1542 1544 1545 1546 1548 1549 1550 1551
1513 1503 1504 1504 1506 1505 1508 1509 1508 1509 1512 1515 1516 1518 1524 1527 1528 1528 1530 1531 1532 1533 1533 1533 1534 1533 1533 1533 1533 1534 1534 1534 1535 1535 1536 1536 1537 1539 1540 1541 1542 1543 1545 1546 1547 1548 1550 1551 1552
1513 1505 1503 1503 1505 1507 1509 1510 1512 1511 1514 1518 1518 1518 1523 1527 1528 1529 1531 1532 1533 1534 1535 1535 1536 1536 1536 1536 1535 1535 1536 1536 1536 1537 1537 1538 1538 1540 1541 1542 1543 1544 1545 1546 1547 1549 1550 1551 1552
1513 1505 1504 1503 1505 1507 1509 1510 1513 1515 1517 1519 1520 1521 1524 1527 1529 1530 1532 1533 1534 1535 1536 1537 1537 1538 1538 1539 1538 1538 1537 1538 1538 1538 1538 1539 1541 1542 1542 1543 1543 1544 1545 1546 1547 1549 1550 1551 1552
1510 1504 1505 1504 1504 1506 1509 1511 1513 1514 1516 1519 1522 1524 1526 1527 1529 1531 1533 1534 1535 1536 1537 1538 1539 1539 1540 1540 1540 1540 1541 1540 1540 1541 1541 1541 1542 1543 1544 1544 1544 1545 1545 1546 1547 1548 1549 1551 1553
1508 1505 1504 1506 1507 1508 1509 1511 1513 1513 1514 1518 1521 1524 1526 1528 1530 1532 1533 1535 1536 1537 1538 1539 1540 1540 1541 1541 1541 1542 1542 1542 1542 1542 1542 1542 1543 1544 1544 1545 1545 1545 1546 1547 1547 1548 1550 1551 1552
1507 1506 1506 1507 1508 1509 1509 1511 1513 1514 1516 1519 1521 1524 1527 1529 1531 1532 1534 1536 1537 1538 1539 1539 1540 1540 1541 1542 1542 1542 1543 1543 1544 1543 1543 1544 1544 1544 1545 1545 1546 1546 1547 1547 1548 1548 1549 1550 1551
1507 1506 1507 1508 1508 1509 1510 1511 1513 1516 1518 1520 1522 1525 1527 1529 1531 1533 1535 1536 1537 1538 1539 1540 1540 1540 1541 1541 1542 1543 1543 1544 1544 1544 1544 1544 1545 1545 1545 1545 1545 1547 1547 1547 1547 1548 1548 1549 1550
1506 1507 1506 1507 1508 1509 1510 1511 1513 1516 1519 1521 1523 1525 1527 1529 1531 1533 1535 1537 1538 1539 1539 1540 1540 1541 1541 1542 1543 1544 1544 1544 1545 1545 1545 1544 1545 1545 1545 1545 1546 1546 1547 1547 1547 1548 1548 1549 1550
1508 1506 1505 1505 1506 1508 1509 1510 1511 1515 1518 1520 1522 1525 1527 1529 1531 1533 1535 1536 1538 1539 1539 1540 1541 1541 1542 1543 1544 1545 1545 1546 1546 1546 1545 1545 1546 1545 1546 1546 1546 1547 1547 1546 1547 1548 1548 1549 1550
1504 1502 1504 1503 1504 1507 1509 1511 1510 1514 1517 1519 1522 1524 1527 1529 1531 1533 1535 1536 1537 1538 1539 1540 1542 1542 1542 1543 1544 1545 1546 1546 1546 1546 1546 1545 1545 1545 1545 1546 1547 1547 1547 1547 1547 1548 1549 1549 1549
1500 1503 1503 1502 1502 1503 1504 1506 1508 1512 1515 1517 1520 1523 1526 1528 1530 1532 1534 1535 1536 1537 1539 1540 1541 1542 1543 1543 1544 1545 1545 1546 1546 1546 1546 1546 1546 1546 1546 1546 1546 1547 1547 1547 1548 1548 1548 1548 1549
1504 1501 1502 1502 1499 1501 1502 1502 1505 1510 1512 1514 1518 1521 1524 1526 1528 1531 1533 1534 1535 1536 1537 1539 1540 1541 1542 1543 1544 1545 1545 1546 1546 1546 1546 1546 1546 1546 1546 1547 1546 1547 1547 1547 1547 1546 1546 1547 1548
1499 1500 1500 1499 1497 1499 1501 1501 1502 1507 1510 1512 1515 1518 1521 1524 1527 1529 1531 1533 1534 1535 1536 1537 1539 1540 1541 1542 1544 1544 1545 1545 1546 1546 1546 1546 1546 1546 1545 1546 1546 1546 1546 1546 1546 1546 1546 1547 1547
1499 1500 1499 1497 1497 1499 1498 1498 1497 1502 1506 1509 1512 1515 1518 1521 1524 1527 1529 1530 1532 1533 1534 1535 1537 1538 1540 1541 1542 1543 1544 1545 1545 1545 1545 1545 1545 1545 1546 1545 1546 1545 1545 1545 1545 1544 1546 1547 1547
1498 1498 1497 1498 1497 1497 1499 1498 1497 1499 1503 1507 1510 1512 1515 1518 1520 1523 1526 1527 1529 1531 1532 1534 1535 1537 1538 1540 1541 1542 1543 1544 1544 1544 1544 1544 1544 1544 1544 1545 1545 1544 1545 1545 1544 1544 1544 1546 1546
1498 1493 1495 1497 1499 1497 1499 1505 1495 1495 1499 1502 1505 1508 1511 1514 1517 1520 1522 1524 1526 1528 1530 1532 1533 1535 1536 1538 1539 1540 1542 1542 1543 1543 1543 1543 1543 1543 1543 1543 1543 1543 1544 1543 1543 1543 1543 1544 1545
1493 1493 1494 1495 1497 1498 1496 1501 1493 1491 1496 1497 1500 1504 1507 1511 1513 1516 1519 1521 1524 1526 1528 1530 1531 1533 1534 1536 1537 1538 1540 1541 1542 1542 1542 1542 1542 1542 1542 1542 1542 1542 1542 1542 1542 1542 1542 1543 1543
1492 1495 1496 1494 1494 1507 1498 1502 1498 1488 1491 1492 1496 1501 1505 1507 1510 1513 1516 1519 1522 1524 1526 1528 1529 1531 1532 1534 1535 1536 1537 1539 1540 1540 1541 1541 1541 1541 1541 1541 1540 1541 1541 1541 1541 1540 1540 1541 1541
1493 1498 1506 1509 1507 1504 1493 1498 1495 1486 1488 1491 1494 1498 1502 1505 1508 1510 1513 1516 1519 1521 1524 1526 1527 1528 1530 1531 1533 1534 1535 1536 1537 1538 1539 1540 1540 1540 1539 1540 1539 1540 1539 1539 1539 1539 1539 1539 1539
1489 1490 1504 1514 1510 1497 1494 1496 1487 1485 1489 1491 1494 1497 1500 1503 1505 1508 1511 1513 1516 1519 1521 1523 1524 1525 1527 1529 1530 1532 1533 1535 1536 1536 1537 1537 1538 1538 1538 1538 1537 1537 1537 1538 1537 1538 1538 1537 1537
1488 1487 1481 1490 1493 1497 1491 1487 1483 1484 1488 1490 1492 1495 1498 1501 1504 1506 1509 1512 1514 1516 1518 1520 1522 1523 1525 1527 1528 1529 1531 1532 1533 1534 1534 1535 1535 1536 1535 1535 1535 1535 1535 1535 1535 1536 1535 1535 1536
1482 1480 1485 1491 1507 1508 1496 1490 1485 1485 1485 1487 1490 1493 1497 1500 1503 1505 1508 1510 1512 1514 1516 1518 1520 1521 1523 1524 1526 1528 1528 1529 1530 1531 1532 1533 1533 1534 1534 1533 1533 1533 1533 1533 1533 1534 1534 1533 1533
1485 1486 1485 1485 1487 1501 1503 1491 1475 1479 1482 1485 1488 1492 1496 1499 1502 1504 1506 1508 1510 1512 1514 1516 1517 1519 1520 1522 1523 1525 1526 1526 1527 1528 1529 1529 1530 1530 1530 1531 1531 1531 1531 1531 1531 1532 1531 1531 1531
1476 1477 1481 1491 1493 1489 1492 1488 1474 1477 1480 1484 1488 1492 1496 1498 1501 1503 1505 1507 1509 1511 1513 1513 1515 1516 1517 1519 1520 1522 1522 1523 1524 1525 1525 1525 1526 1527 1527 1528 1528 1528 1529 1529 1529 1529 1529 1529 1528